Time,TemperatureF,DewpointF,PressureIn,WindDirection,WindDirectionDegrees,WindSpeedMPH,WindSpeedGustMPH,Humidity,HourlyPrecipIn,Conditions,Clouds,dailyrainin,SoftwareType,DateUTC
2013-02-23 00:00:00,46.3,21.2,30.02,NNW,338,4.5,16.8,37,0.00,,,0.00,WUHU216HW,2013-02-23 07:00:00,
2013-02-23 00:05:00,46.1,21.1,30.03,NW,315,10.3,12.3,37,0.00,,,0.00,WUHU216HW,2013-02-23 07:05:00,
2013-02-23 00:10:00,46.4,20.7,30.03,NW,315,10.7,12.3,36,0.00,,,0.00,WUHU216HW,2013-02-23 07:10:00,
2013-02-23 00:15:00,46.3,19.9,30.03,North,0,3.8,17.4,35,0.00,,,0.00,WUHU216HW,2013-02-23 07:15:00,
2013-02-23 00:20:00,46.3,20.6,30.04,North,0,3.4,17.4,36,0.00,,,0.00,WUHU216HW,2013-02-23 07:20:00,
2013-02-23 00:25:00,45.9,20.3,30.04,NW,315,11.0,12.5,36,0.00,,,0.00,WUHU216HW,2013-02-23 07:25:00,
2013-02-23 00:30:00,45.7,20.1,30.04,NW,315,11.6,14.5,36,0.00,,,0.00,WUHU216HW,2013-02-23 07:30:00,
2013-02-23 00:35:00,45.7,20.1,30.04,North,0,5.4,14.5,36,0.00,,,0.00,WUHU216HW,2013-02-23 07:35:00,
2013-02-23 00:40:00,45.5,20.6,30.04,NNW,338,4.5,14.5,37,0.00,,,0.00,WUHU216HW,2013-02-23 07:40:00,
2013-02-23 00:45:00,45.4,19.8,30.04,NW,315,6.3,9.2,36,0.00,,,0.00,WUHU216HW,2013-02-23 07:45:00,
2013-02-23 00:50:00,45.4,20.4,30.05,NNW,338,4.7,9.2,37,0.00,,,0.00,WUHU216HW,2013-02-23 07:50:00,
2013-02-23 00:55:00,45.0,20.1,30.05,North,0,8.7,9.2,37,0.00,,,0.00,WUHU216HW,2013-02-23 07:55:00,
2013-02-23 01:00:00,44.8,20.6,30.05,WNW,293,3.4,9.4,38,0.00,,,0.00,WUHU216HW,2013-02-23 08:00:00,
2013-02-23 01:05:00,44.6,20.4,30.05,NW,315,6.3,9.4,38,0.00,,,0.00,WUHU216HW,2013-02-23 08:05:00,
2013-02-23 01:10:00,44.3,20.8,30.05,North,0,2.7,8.9,39,0.00,,,0.00,WUHU216HW,2013-02-23 08:10:00,
2013-02-23 01:15:00,44.1,20.6,30.05,NW,315,3.4,7.8,39,0.00,,,0.00,WUHU216HW,2013-02-23 08:15:00,
2013-02-23 01:20:00,43.7,21.0,30.05,NW,315,2.5,4.9,40,0.00,,,0.00,WUHU216HW,2013-02-23 08:20:00,
2013-02-23 01:25:00,43.6,20.8,30.05,NNW,338,0.9,5.8,40,0.00,,,0.00,WUHU216HW,2013-02-23 08:25:00,
2013-02-23 01:30:00,43.6,20.8,30.06,NW,315,2.7,5.8,40,0.00,,,0.00,WUHU216HW,2013-02-23 08:30:00,
2013-02-23 01:35:00,43.6,20.8,30.06,NW,315,3.6,8.3,40,0.00,,,0.00,WUHU216HW,2013-02-23 08:35:00,
2013-02-23 01:40:00,43.4,20.6,30.06,WNW,293,3.4,8.3,40,0.00,,,0.00,WUHU216HW,2013-02-23 08:40:00,
2013-02-23 01:45:00,43.2,20.5,30.05,NNW,338,4.7,6.5,40,0.00,,,0.00,WUHU216HW,2013-02-23 08:45:00,
2013-02-23 01:50:00,43.2,19.8,30.06,NW,315,5.4,7.4,39,0.00,,,0.00,WUHU216HW,2013-02-23 08:50:00,
2013-02-23 01:55:00,43.2,19.8,30.05,WNW,293,4.0,7.4,39,0.00,,,0.00,WUHU216HW,2013-02-23 08:55:00,
2013-02-23 02:00:00,43.0,19.0,30.06,NNW,338,4.9,7.6,38,0.00,,,0.00,WUHU216HW,2013-02-23 09:00:00,
2013-02-23 02:05:00,43.0,18.4,30.06,NNW,338,3.1,7.6,37,0.00,,,0.00,WUHU216HW,2013-02-23 09:05:00,
2013-02-23 02:10:00,43.0,17.0,30.06,WNW,293,3.1,7.2,35,0.00,,,0.00,WUHU216HW,2013-02-23 09:10:00,
2013-02-23 02:15:00,43.0,15.7,30.05,NNW,338,3.8,7.4,33,0.00,,,0.00,WUHU216HW,2013-02-23 09:15:00,
2013-02-23 02:20:00,43.0,15.0,30.06,NNW,338,2.9,7.4,32,0.00,,,0.00,WUHU216HW,2013-02-23 09:20:00,
2013-02-23 02:25:00,42.8,14.1,30.06,North,0,1.8,4.9,31,0.00,,,0.00,WUHU216HW,2013-02-23 09:25:00,
2013-02-23 02:30:00,42.8,14.1,30.06,NNW,338,4.0,4.9,31,0.00,,,0.00,WUHU216HW,2013-02-23 09:30:00,
2013-02-23 02:35:00,42.7,14.1,30.05,North,0,2.5,5.1,31,0.00,,,0.00,WUHU216HW,2013-02-23 09:35:00,
2013-02-23 02:40:00,42.7,13.3,30.05,NNW,338,3.4,5.1,30,0.00,,,0.00,WUHU216HW,2013-02-23 09:40:00,
2013-02-23 02:45:00,42.5,13.2,30.06,NNW,338,3.4,4.7,30,0.00,,,0.00,WUHU216HW,2013-02-23 09:45:00,
2013-02-23 02:50:00,42.3,13.1,30.05,North,0,2.5,4.7,30,0.00,,,0.00,WUHU216HW,2013-02-23 09:50:00,
2013-02-23 02:55:00,42.3,13.1,30.05,NNW,338,2.2,5.6,30,0.00,,,0.00,WUHU216HW,2013-02-23 09:55:00,
2013-02-23 03:00:00,42.1,13.0,30.05,NW,315,5.1,5.6,30,0.00,,,0.00,WUHU216HW,2013-02-23 10:00:00,
2013-02-23 03:05:00,42.1,13.0,30.05,NNW,338,4.0,5.1,30,0.00,,,0.00,WUHU216HW,2013-02-23 10:05:00,
2013-02-23 03:10:00,42.1,13.0,30.05,NNW,338,3.1,6.3,30,0.00,,,0.00,WUHU216HW,2013-02-23 10:10:00,
2013-02-23 03:15:00,42.1,13.0,30.05,North,0,4.3,6.3,30,0.00,,,0.00,WUHU216HW,2013-02-23 10:15:00,
2013-02-23 03:20:00,41.9,12.8,30.05,NNW,338,2.7,5.4,30,0.00,,,0.00,WUHU216HW,2013-02-23 10:20:00,
2013-02-23 03:25:00,41.8,12.6,30.05,North,0,3.6,4.3,30,0.00,,,0.00,WUHU216HW,2013-02-23 10:25:00,
2013-02-23 03:30:00,41.4,13.0,30.04,NNW,338,2.2,3.6,31,0.00,,,0.00,WUHU216HW,2013-02-23 10:30:00,
2013-02-23 03:35:00,41.2,12.9,30.04,NNW,338,0.7,2.9,31,0.00,,,0.00,WUHU216HW,2013-02-23 10:35:00,
2013-02-23 03:40:00,41.0,12.7,30.04,NW,315,1.3,3.4,31,0.00,,,0.00,WUHU216HW,2013-02-23 10:40:00,
2013-02-23 03:45:00,40.9,12.5,30.04,NW,315,1.6,3.4,31,0.00,,,0.00,WUHU216HW,2013-02-23 10:45:00,
2013-02-23 03:50:00,40.7,12.4,30.04,NW,315,2.2,2.7,31,0.00,,,0.00,WUHU216HW,2013-02-23 10:50:00,
2013-02-23 03:55:00,40.7,12.4,30.04,NNW,338,0.9,3.4,31,0.00,,,0.00,WUHU216HW,2013-02-23 10:55:00,
2013-02-23 04:00:00,40.3,12.1,30.04,NNW,338,1.8,3.4,31,0.00,,,0.00,WUHU216HW,2013-02-23 11:00:00,
2013-02-23 04:05:00,40.3,12.1,30.03,NNW,338,1.6,3.4,31,0.00,,,0.00,WUHU216HW,2013-02-23 11:05:00,
2013-02-23 04:10:00,40.3,12.1,30.04,North,0,1.3,3.6,31,0.00,,,0.00,WUHU216HW,2013-02-23 11:10:00,
2013-02-23 04:15:00,40.3,11.4,30.04,NNW,338,3.4,4.7,30,0.00,,,0.00,WUHU216HW,2013-02-23 11:15:00,
2013-02-23 04:20:00,40.5,11.6,30.04,NW,315,2.0,4.7,30,0.00,,,0.00,WUHU216HW,2013-02-23 11:20:00,
2013-02-23 04:25:00,40.5,11.6,30.03,North,0,1.8,3.8,30,0.00,,,0.00,WUHU216HW,2013-02-23 11:25:00,
2013-02-23 04:30:00,40.7,11.7,30.04,North,0,1.6,3.6,30,0.00,,,0.00,WUHU216HW,2013-02-23 11:30:00,
2013-02-23 04:35:00,40.7,11.7,30.04,NNW,338,1.6,3.8,30,0.00,,,0.00,WUHU216HW,2013-02-23 11:35:00,
2013-02-23 04:40:00,40.5,11.6,30.03,North,0,1.1,3.8,30,0.00,,,0.00,WUHU216HW,2013-02-23 11:40:00,
2013-02-23 04:45:00,40.1,11.3,30.04,NW,315,1.1,3.4,30,0.00,,,0.00,WUHU216HW,2013-02-23 11:45:00,
2013-02-23 04:50:00,40.0,11.7,30.04,NW,315,0.9,2.0,31,0.00,,,0.00,WUHU216HW,2013-02-23 11:50:00,
2013-02-23 04:55:00,39.8,11.6,30.04,NW,315,1.1,3.4,31,0.00,,,0.00,WUHU216HW,2013-02-23 11:55:00,
2013-02-23 05:00:00,39.6,11.4,30.04,NE,45,0.4,3.4,31,0.00,,,0.00,WUHU216HW,2013-02-23 12:00:00,
2013-02-23 05:05:00,38.9,12.1,30.04,ENE,68,2.5,3.1,33,0.00,,,0.00,WUHU216HW,2013-02-23 12:05:00,
2013-02-23 05:10:00,38.2,12.1,30.04,NE,45,0.9,3.1,34,0.00,,,0.00,WUHU216HW,2013-02-23 12:10:00,
2013-02-23 05:15:00,37.8,12.4,30.04,NE,45,2.0,4.0,35,0.00,,,0.00,WUHU216HW,2013-02-23 12:15:00,
2013-02-23 05:20:00,37.8,12.4,30.04,North,0,2.0,4.0,35,0.00,,,0.00,WUHU216HW,2013-02-23 12:20:00,
2013-02-23 05:25:00,37.8,12.4,30.04,NNE,23,1.1,4.0,35,0.00,,,0.00,WUHU216HW,2013-02-23 12:25:00,
2013-02-23 05:30:00,37.8,12.4,30.04,North,0,1.6,4.0,35,0.00,,,0.00,WUHU216HW,2013-02-23 12:30:00,
2013-02-23 05:35:00,37.8,12.4,30.04,North,0,1.1,3.6,35,0.00,,,0.00,WUHU216HW,2013-02-23 12:35:00,
2013-02-23 05:40:00,37.8,12.4,30.04,NNE,23,1.6,3.6,35,0.00,,,0.00,WUHU216HW,2013-02-23 12:40:00,
2013-02-23 05:45:00,37.6,12.3,30.04,WNW,293,0.7,2.5,35,0.00,,,0.00,WUHU216HW,2013-02-23 12:45:00,
2013-02-23 05:50:00,37.3,11.9,30.04,North,0,0.0,2.2,35,0.00,,,0.00,WUHU216HW,2013-02-23 12:50:00,
2013-02-23 05:55:00,37.1,11.7,30.04,East,90,0.0,1.8,35,0.00,,,0.00,WUHU216HW,2013-02-23 12:55:00,
2013-02-23 06:00:00,36.7,12.1,30.04,East,90,2.0,2.9,36,0.00,,,0.00,WUHU216HW,2013-02-23 13:00:00,
2013-02-23 06:05:00,36.2,12.3,30.05,SE,135,0.4,2.9,37,0.00,,,0.00,WUHU216HW,2013-02-23 13:05:00,
2013-02-23 06:10:00,36.0,12.7,30.05,ENE,68,1.6,3.4,38,0.00,,,0.00,WUHU216HW,2013-02-23 13:10:00,
2013-02-23 06:15:00,36.0,13.3,30.05,NE,45,2.5,3.4,39,0.00,,,0.00,WUHU216HW,2013-02-23 13:15:00,
2013-02-23 06:20:00,35.8,12.5,30.05,SE,135,0.7,2.9,38,0.00,,,0.00,WUHU216HW,2013-02-23 13:20:00,
2013-02-23 06:25:00,35.5,12.9,30.05,SW,225,0.4,2.0,39,0.00,,,0.00,WUHU216HW,2013-02-23 13:25:00,
2013-02-23 06:30:00,35.1,12.5,30.04,South,180,0.0,2.0,39,0.00,,,0.00,WUHU216HW,2013-02-23 13:30:00,
2013-02-23 06:35:00,34.7,12.3,30.05,SSW,203,0.4,0.4,39,0.00,,,0.00,WUHU216HW,2013-02-23 13:35:00,
2013-02-23 06:40:00,34.4,12.5,30.05,SSW,203,0.0,1.3,40,0.00,,,0.00,WUHU216HW,2013-02-23 13:40:00,
2013-02-23 06:45:00,34.0,12.3,30.05,SE,135,0.4,2.0,40,0.00,,,0.00,WUHU216HW,2013-02-23 13:45:00,
2013-02-23 06:50:00,33.8,12.6,30.05,ESE,113,0.4,2.0,41,0.00,,,0.00,WUHU216HW,2013-02-23 13:50:00,
2013-02-23 06:55:00,33.5,12.2,30.06,ESE,113,0.0,1.6,41,0.00,,,0.00,WUHU216HW,2013-02-23 13:55:00,
2013-02-23 07:00:00,33.5,12.8,30.05,NE,45,1.1,1.1,42,0.00,,,0.00,WUHU216HW,2013-02-23 14:00:00,
2013-02-23 07:05:00,33.5,12.8,30.06,WSW,248,1.3,1.3,42,0.00,,,0.00,WUHU216HW,2013-02-23 14:05:00,
2013-02-23 07:10:00,33.8,13.6,30.06,WSW,248,1.8,3.1,43,0.00,,,0.00,WUHU216HW,2013-02-23 14:10:00,
2013-02-23 07:15:00,34.2,13.4,30.06,WSW,248,0.0,3.1,42,0.00,,,0.00,WUHU216HW,2013-02-23 14:15:00,
2013-02-23 07:20:00,34.6,13.8,30.06,ESE,113,0.2,1.8,42,0.00,,,0.00,WUHU216HW,2013-02-23 14:20:00,
2013-02-23 07:25:00,35.3,14.4,30.06,East,90,0.0,0.2,42,0.00,,,0.00,WUHU216HW,2013-02-23 14:25:00,
2013-02-23 07:30:00,36.0,14.5,30.06,North,0,0.4,0.9,41,0.00,,,0.00,WUHU216HW,2013-02-23 14:30:00,
2013-02-23 07:35:00,36.7,15.7,30.06,NE,45,0.4,1.1,42,0.00,,,0.00,WUHU216HW,2013-02-23 14:35:00,
2013-02-23 07:40:00,37.4,15.9,30.06,ESE,113,0.9,1.6,41,0.00,,,0.00,WUHU216HW,2013-02-23 14:40:00,
2013-02-23 07:45:00,38.2,16.5,30.06,East,90,0.4,1.6,41,0.00,,,0.00,WUHU216HW,2013-02-23 14:45:00,
2013-02-23 07:50:00,38.7,16.5,30.07,South,180,0.7,1.1,40,0.00,,,0.00,WUHU216HW,2013-02-23 14:50:00,
2013-02-23 07:55:00,39.1,16.7,30.07,SE,135,1.1,1.3,40,0.00,,,0.00,WUHU216HW,2013-02-23 14:55:00,
2013-02-23 08:00:00,39.8,16.7,30.07,SSW,203,0.4,1.3,39,0.00,,,0.00,WUHU216HW,2013-02-23 15:00:00,
2013-02-23 08:05:00,40.1,16.5,30.07,East,90,1.1,1.3,38,0.00,,,0.00,WUHU216HW,2013-02-23 15:05:00,
2013-02-23 08:10:00,40.7,16.9,30.07,ESE,113,0.0,1.3,38,0.00,,,0.00,WUHU216HW,2013-02-23 15:10:00,
2013-02-23 08:15:00,40.7,16.3,30.07,WNW,293,0.2,1.8,37,0.00,,,0.00,WUHU216HW,2013-02-23 15:15:00,
2013-02-23 08:20:00,40.9,16.5,30.07,ENE,68,0.0,1.8,37,0.00,,,0.00,WUHU216HW,2013-02-23 15:20:00,
2013-02-23 08:25:00,41.4,16.9,30.07,East,90,0.4,1.6,37,0.00,,,0.00,WUHU216HW,2013-02-23 15:25:00,
2013-02-23 08:30:00,41.9,16.8,30.07,East,90,0.9,1.6,36,0.00,,,0.00,WUHU216HW,2013-02-23 15:30:00,
2013-02-23 08:35:00,42.3,17.0,30.08,SSW,203,1.8,1.8,36,0.00,,,0.00,WUHU216HW,2013-02-23 15:35:00,
2013-02-23 08:40:00,42.1,16.2,30.08,WSW,248,0.7,2.5,35,0.00,,,0.00,WUHU216HW,2013-02-23 15:40:00,
2013-02-23 08:45:00,42.1,16.2,30.08,NNE,23,0.4,2.5,35,0.00,,,0.00,WUHU216HW,2013-02-23 15:45:00,
2013-02-23 08:50:00,42.7,16.7,30.08,WSW,248,0.4,1.3,35,0.00,,,0.00,WUHU216HW,2013-02-23 15:50:00,
2013-02-23 08:55:00,43.2,17.2,30.08,ENE,68,1.8,1.8,35,0.00,,,0.00,WUHU216HW,2013-02-23 15:55:00,
2013-02-23 09:00:00,43.7,16.3,30.08,ENE,68,1.6,1.8,33,0.00,,,0.00,WUHU216HW,2013-02-23 16:00:00,
2013-02-23 09:05:00,44.3,16.8,30.08,ESE,113,1.8,1.8,33,0.00,,,0.00,WUHU216HW,2013-02-23 16:05:00,
2013-02-23 09:10:00,44.6,15.8,30.08,East,90,1.6,2.7,31,0.00,,,0.00,WUHU216HW,2013-02-23 16:10:00,
2013-02-23 09:15:00,45.0,16.7,30.07,SSE,158,1.8,2.7,32,0.00,,,0.00,WUHU216HW,2013-02-23 16:15:00,
2013-02-23 09:20:00,45.4,16.5,30.07,ESE,113,2.5,2.7,31,0.00,,,0.00,WUHU216HW,2013-02-23 16:20:00,
2013-02-23 09:25:00,45.7,16.7,30.07,North,0,1.3,2.9,31,0.00,,,0.00,WUHU216HW,2013-02-23 16:25:00,
2013-02-23 09:30:00,46.1,17.1,30.07,NE,45,1.1,2.9,31,0.00,,,0.00,WUHU216HW,2013-02-23 16:30:00,
2013-02-23 09:35:00,46.6,17.6,30.07,SE,135,2.9,2.9,31,0.00,,,0.00,WUHU216HW,2013-02-23 16:35:00,
2013-02-23 09:40:00,47.2,17.4,30.07,SE,135,1.8,2.9,30,0.00,,,0.00,WUHU216HW,2013-02-23 16:40:00,
2013-02-23 09:45:00,47.3,17.6,30.07,ESE,113,2.0,2.9,30,0.00,,,0.00,WUHU216HW,2013-02-23 16:45:00,
2013-02-23 09:50:00,47.5,17.7,30.07,WSW,248,1.3,3.1,30,0.00,,,0.00,WUHU216HW,2013-02-23 16:50:00,
2013-02-23 09:55:00,47.7,17.9,30.07,SSW,203,3.4,3.4,30,0.00,,,0.00,WUHU216HW,2013-02-23 16:55:00,
2013-02-23 10:00:00,47.9,17.1,30.06,SSE,158,2.0,4.0,29,0.00,,,0.00,WUHU216HW,2013-02-23 17:00:00,
2013-02-23 10:05:00,48.6,16.7,30.06,SE,135,1.6,4.0,28,0.00,,,0.00,WUHU216HW,2013-02-23 17:05:00,
2013-02-23 10:10:00,49.0,16.1,30.06,SSW,203,1.6,4.0,27,0.00,,,0.00,WUHU216HW,2013-02-23 17:10:00,
2013-02-23 10:15:00,49.0,16.1,30.06,SW,225,0.7,2.5,27,0.00,,,0.00,WUHU216HW,2013-02-23 17:15:00,
2013-02-23 10:20:00,49.3,17.4,30.06,SSE,158,2.7,2.9,28,0.00,,,0.00,WUHU216HW,2013-02-23 17:20:00,
2013-02-23 10:25:00,49.9,16.9,30.06,West,270,2.9,2.9,27,0.00,,,0.00,WUHU216HW,2013-02-23 17:25:00,
2013-02-23 10:30:00,49.3,14.6,30.05,NNW,338,0.9,2.9,25,0.00,,,0.00,WUHU216HW,2013-02-23 17:30:00,
2013-02-23 10:35:00,48.8,16.0,30.06,East,90,1.6,2.5,27,0.00,,,0.00,WUHU216HW,2013-02-23 17:35:00,
2013-02-23 10:40:00,49.7,16.7,30.05,SW,225,1.6,3.4,27,0.00,,,0.00,WUHU216HW,2013-02-23 17:40:00,
2013-02-23 10:45:00,50.8,17.6,30.05,SW,225,2.7,3.8,27,0.00,,,0.00,WUHU216HW,2013-02-23 17:45:00,
2013-02-23 10:50:00,51.3,16.3,30.05,SE,135,0.4,3.8,25,0.00,,,0.00,WUHU216HW,2013-02-23 17:50:00,
2013-02-23 10:55:00,51.5,16.5,30.05,SE,135,3.4,5.4,25,0.00,,,0.00,WUHU216HW,2013-02-23 17:55:00,
2013-02-23 11:00:00,52.0,16.9,30.05,ESE,113,3.8,5.8,25,0.00,,,0.00,WUHU216HW,2013-02-23 18:00:00,
2013-02-23 11:05:00,52.6,17.4,30.05,SE,135,2.0,5.8,25,0.00,,,0.00,WUHU216HW,2013-02-23 18:05:00,
2013-02-23 11:10:00,53.1,16.8,30.04,SSE,158,2.9,6.9,24,0.00,,,0.00,WUHU216HW,2013-02-23 18:10:00,
2013-02-23 11:15:00,53.5,17.2,30.04,SSW,203,3.1,6.9,24,0.00,,,0.00,WUHU216HW,2013-02-23 18:15:00,
2013-02-23 11:20:00,53.5,17.2,30.04,ESE,113,1.8,4.7,24,0.00,,,0.00,WUHU216HW,2013-02-23 18:20:00,
2013-02-23 11:25:00,53.6,17.3,30.04,SSE,158,5.4,5.4,24,0.00,,,0.00,WUHU216HW,2013-02-23 18:25:00,
2013-02-23 11:30:00,53.8,17.5,30.03,SE,135,3.6,5.8,24,0.00,,,0.00,WUHU216HW,2013-02-23 18:30:00,
2013-02-23 11:35:00,54.0,16.7,30.03,SE,135,2.5,5.8,23,0.00,,,0.00,WUHU216HW,2013-02-23 18:35:00,
2013-02-23 11:40:00,54.0,17.7,30.03,ESE,113,2.5,5.1,24,0.00,,,0.00,WUHU216HW,2013-02-23 18:40:00,
2013-02-23 11:45:00,54.5,18.1,30.02,SE,135,4.7,5.1,24,0.00,,,0.00,WUHU216HW,2013-02-23 18:45:00,
2013-02-23 11:50:00,55.1,18.5,30.02,ESE,113,5.8,8.1,24,0.00,,,0.00,WUHU216HW,2013-02-23 18:50:00,
2013-02-23 11:55:00,55.3,18.7,30.02,SSE,158,2.7,8.1,24,0.00,,,0.00,WUHU216HW,2013-02-23 18:55:00,
2013-02-23 12:00:00,55.6,19.0,30.02,South,180,4.7,5.8,24,0.00,,,0.00,WUHU216HW,2013-02-23 19:00:00,
2013-02-23 12:05:00,55.8,18.3,30.01,SE,135,4.7,6.7,23,0.00,,,0.00,WUHU216HW,2013-02-23 19:05:00,
2013-02-23 12:10:00,56.0,18.4,30.00,ESE,113,3.6,6.7,23,0.00,,,0.00,WUHU216HW,2013-02-23 19:10:00,
2013-02-23 12:15:00,56.5,18.8,30.00,SE,135,4.0,9.2,23,0.00,,,0.00,WUHU216HW,2013-02-23 19:15:00,
2013-02-23 12:20:00,56.5,17.9,30.00,NW,315,7.2,9.2,22,0.00,,,0.00,WUHU216HW,2013-02-23 19:20:00,
2013-02-23 12:25:00,57.1,18.4,29.99,SSE,158,6.9,8.9,22,0.00,,,0.00,WUHU216HW,2013-02-23 19:25:00,
2013-02-23 12:30:00,57.1,17.4,29.99,SW,225,4.3,8.9,21,0.00,,,0.00,WUHU216HW,2013-02-23 19:30:00,
2013-02-23 12:35:00,57.4,17.6,29.98,SSW,203,3.4,10.7,21,0.00,,,0.00,WUHU216HW,2013-02-23 19:35:00,
2013-02-23 12:40:00,57.6,17.8,29.98,WSW,248,2.0,10.7,21,0.00,,,0.00,WUHU216HW,2013-02-23 19:40:00,
2013-02-23 12:45:00,57.8,17.0,29.97,WSW,248,5.8,8.5,20,0.00,,,0.00,WUHU216HW,2013-02-23 19:45:00,
2013-02-23 12:50:00,58.0,17.1,29.98,West,270,6.3,8.5,20,0.00,,,0.00,WUHU216HW,2013-02-23 19:50:00,
2013-02-23 12:55:00,58.3,18.4,29.97,SW,225,4.0,7.4,21,0.00,,,0.00,WUHU216HW,2013-02-23 19:55:00,
2013-02-23 13:00:00,58.5,17.6,29.97,WNW,293,6.0,8.5,20,0.00,,,0.00,WUHU216HW,2013-02-23 20:00:00,
2013-02-23 13:05:00,58.1,17.3,29.96,West,270,5.6,8.5,20,0.00,,,0.00,WUHU216HW,2013-02-23 20:05:00,
2013-02-23 13:10:00,58.3,17.5,29.96,West,270,9.6,9.6,20,0.00,,,0.00,WUHU216HW,2013-02-23 20:10:00,
2013-02-23 13:15:00,58.5,17.6,29.95,WSW,248,5.4,9.6,20,0.00,,,0.00,WUHU216HW,2013-02-23 20:15:00,
2013-02-23 13:20:00,58.1,15.8,29.95,West,270,9.4,11.0,19,0.00,,,0.00,WUHU216HW,2013-02-23 20:20:00,
2013-02-23 13:25:00,58.0,15.6,29.95,West,270,8.5,12.5,19,0.00,,,0.00,WUHU216HW,2013-02-23 20:25:00,
2013-02-23 13:30:00,58.0,17.1,29.94,WNW,293,7.2,12.5,20,0.00,,,0.00,WUHU216HW,2013-02-23 20:30:00,
2013-02-23 13:35:00,58.0,17.1,29.94,West,270,6.3,13.0,20,0.00,,,0.00,WUHU216HW,2013-02-23 20:35:00,
2013-02-23 13:40:00,58.1,14.2,29.94,West,270,8.7,13.0,18,0.00,,,0.00,WUHU216HW,2013-02-23 20:40:00,
2013-02-23 13:45:00,58.3,17.5,29.94,SW,225,2.5,12.3,20,0.00,,,0.00,WUHU216HW,2013-02-23 20:45:00,
2013-02-23 13:50:00,58.7,17.7,29.94,South,180,6.5,11.2,20,0.00,,,0.00,WUHU216HW,2013-02-23 20:50:00,
2013-02-23 13:55:00,59.0,19.0,29.94,SW,225,4.5,11.2,21,0.00,,,0.00,WUHU216HW,2013-02-23 20:55:00,
2013-02-23 14:00:00,59.4,16.7,29.93,SW,225,7.6,8.9,19,0.00,,,0.00,WUHU216HW,2013-02-23 21:00:00,
2013-02-23 14:05:00,59.4,16.7,29.93,SW,225,8.1,8.9,19,0.00,,,0.00,WUHU216HW,2013-02-23 21:05:00,
2013-02-23 14:10:00,59.6,18.5,29.93,South,180,3.6,8.5,20,0.00,,,0.00,WUHU216HW,2013-02-23 21:10:00,
2013-02-23 14:15:00,59.6,19.4,29.92,SSE,158,9.6,9.6,21,0.00,,,0.00,WUHU216HW,2013-02-23 21:15:00,
2013-02-23 14:20:00,59.8,19.6,29.92,SSW,203,8.5,10.5,21,0.00,,,0.00,WUHU216HW,2013-02-23 21:20:00,
2013-02-23 14:25:00,59.8,19.6,29.92,SSE,158,9.4,10.5,21,0.00,,,0.00,WUHU216HW,2013-02-23 21:25:00,
2013-02-23 14:30:00,59.8,19.6,29.92,SW,225,4.7,9.4,21,0.00,,,0.00,WUHU216HW,2013-02-23 21:30:00,
2013-02-23 14:35:00,59.9,19.8,29.91,SSW,203,6.7,12.8,21,0.00,,,0.00,WUHU216HW,2013-02-23 21:35:00,
2013-02-23 14:40:00,59.9,19.8,29.91,SW,225,7.6,12.8,21,0.00,,,0.00,WUHU216HW,2013-02-23 21:40:00,
2013-02-23 14:45:00,59.8,19.6,29.91,SSW,203,3.6,9.8,21,0.00,,,0.00,WUHU216HW,2013-02-23 21:45:00,
2013-02-23 14:50:00,59.8,19.6,29.91,WSW,248,6.9,6.9,21,0.00,,,0.00,WUHU216HW,2013-02-23 21:50:00,
2013-02-23 14:55:00,59.9,19.8,29.90,South,180,5.6,8.5,21,0.00,,,0.00,WUHU216HW,2013-02-23 21:55:00,
2013-02-23 15:00:00,59.8,20.6,29.90,SW,225,6.0,9.2,22,0.00,,,0.00,WUHU216HW,2013-02-23 22:00:00,
2013-02-23 15:05:00,59.8,20.6,29.90,West,270,4.3,11.0,22,0.00,,,0.00,WUHU216HW,2013-02-23 22:05:00,
2013-02-23 15:10:00,59.4,20.3,29.89,SW,225,6.9,11.0,22,0.00,,,0.00,WUHU216HW,2013-02-23 22:10:00,
2013-02-23 15:15:00,59.4,20.3,29.89,WSW,248,6.7,9.8,22,0.00,,,0.00,WUHU216HW,2013-02-23 22:15:00,
2013-02-23 15:20:00,59.4,20.3,29.89,South,180,2.5,11.2,22,0.00,,,0.00,WUHU216HW,2013-02-23 22:20:00,
2013-02-23 15:25:00,59.8,20.6,29.89,South,180,3.8,11.2,22,0.00,,,0.00,WUHU216HW,2013-02-23 22:25:00,
2013-02-23 15:30:00,59.8,20.6,29.88,South,180,9.6,9.6,22,0.00,,,0.00,WUHU216HW,2013-02-23 22:30:00,
2013-02-23 15:35:00,59.6,20.4,29.88,WSW,248,3.4,9.6,22,0.00,,,0.00,WUHU216HW,2013-02-23 22:35:00,
2013-02-23 15:40:00,59.4,20.3,29.88,SW,225,4.3,9.6,22,0.00,,,0.00,WUHU216HW,2013-02-23 22:40:00,
2013-02-23 15:45:00,59.2,20.1,29.88,SW,225,4.7,7.2,22,0.00,,,0.00,WUHU216HW,2013-02-23 22:45:00,
2013-02-23 15:50:00,59.4,20.3,29.88,South,180,4.9,7.2,22,0.00,,,0.00,WUHU216HW,2013-02-23 22:50:00,
2013-02-23 15:55:00,59.6,20.4,29.88,SW,225,5.4,7.2,22,0.00,,,0.00,WUHU216HW,2013-02-23 22:55:00,
2013-02-23 16:00:00,59.6,20.4,29.88,SW,225,3.8,6.5,22,0.00,,,0.00,WUHU216HW,2013-02-23 23:00:00,
2013-02-23 16:05:00,59.4,20.3,29.88,WSW,248,3.4,7.2,22,0.00,,,0.00,WUHU216HW,2013-02-23 23:05:00,
2013-02-23 16:10:00,59.4,20.3,29.87,South,180,4.9,7.2,22,0.00,,,0.00,WUHU216HW,2013-02-23 23:10:00,
2013-02-23 16:15:00,59.2,20.1,29.87,WSW,248,3.8,6.7,22,0.00,,,0.00,WUHU216HW,2013-02-23 23:15:00,
2013-02-23 16:20:00,59.2,20.1,29.87,SSW,203,1.8,6.9,22,0.00,,,0.00,WUHU216HW,2013-02-23 23:20:00,
2013-02-23 16:25:00,59.0,20.0,29.86,ESE,113,3.4,6.9,22,0.00,,,0.00,WUHU216HW,2013-02-23 23:25:00,
2013-02-23 16:30:00,59.2,20.1,29.86,SW,225,2.0,4.0,22,0.00,,,0.00,WUHU216HW,2013-02-23 23:30:00,
2013-02-23 16:35:00,59.0,20.0,29.86,SSE,158,4.9,7.6,22,0.00,,,0.00,WUHU216HW,2013-02-23 23:35:00,
2013-02-23 16:40:00,58.9,20.8,29.86,South,180,2.5,7.6,23,0.00,,,0.00,WUHU216HW,2013-02-23 23:40:00,
2013-02-23 16:45:00,58.9,20.8,29.86,SSW,203,4.0,7.4,23,0.00,,,0.00,WUHU216HW,2013-02-23 23:45:00,
2013-02-23 16:50:00,58.7,20.6,29.85,SSE,158,4.7,8.5,23,0.00,,,0.00,WUHU216HW,2013-02-23 23:50:00,
2013-02-23 16:55:00,58.5,20.4,29.85,SE,135,3.1,8.5,23,0.00,,,0.00,WUHU216HW,2013-02-23 23:55:00,
2013-02-23 17:00:00,58.3,20.4,29.86,SE,135,2.5,6.3,23,0.00,,,0.00,WUHU216HW,2013-02-24 00:00:00,
2013-02-23 17:05:00,58.1,20.2,29.85,SSW,203,9.2,9.2,23,0.00,,,0.00,WUHU216HW,2013-02-24 00:05:00,
2013-02-23 17:10:00,58.0,21.0,29.85,ESE,113,4.7,9.2,24,0.00,,,0.00,WUHU216HW,2013-02-24 00:10:00,
2013-02-23 17:15:00,57.6,20.7,29.85,ESE,113,4.7,9.2,24,0.00,,,0.00,WUHU216HW,2013-02-24 00:15:00,
2013-02-23 17:20:00,57.4,20.5,29.85,SSW,203,6.5,6.5,24,0.00,,,0.00,WUHU216HW,2013-02-24 00:20:00,
2013-02-23 17:25:00,57.4,20.5,29.84,SSE,158,4.5,6.5,24,0.00,,,0.00,WUHU216HW,2013-02-24 00:25:00,
2013-02-23 17:30:00,57.2,20.3,29.84,SSW,203,5.4,8.1,24,0.00,,,0.00,WUHU216HW,2013-02-24 00:30:00,
2013-02-23 17:35:00,56.9,20.1,29.84,SE,135,4.9,8.1,24,0.00,,,0.00,WUHU216HW,2013-02-24 00:35:00,
2013-02-23 17:40:00,56.5,20.7,29.84,SSE,158,4.9,6.9,25,0.00,,,0.00,WUHU216HW,2013-02-24 00:40:00,
2013-02-23 17:45:00,56.2,20.4,29.84,South,180,4.0,5.4,25,0.00,,,0.00,WUHU216HW,2013-02-24 00:45:00,
2013-02-23 17:50:00,55.6,20.0,29.84,SSE,158,2.5,5.8,25,0.00,,,0.00,WUHU216HW,2013-02-24 00:50:00,
2013-02-23 17:55:00,55.4,19.8,29.84,SE,135,2.2,5.8,25,0.00,,,0.00,WUHU216HW,2013-02-24 00:55:00,
2013-02-23 18:00:00,55.1,20.4,29.84,SSE,158,3.1,5.4,26,0.00,,,0.00,WUHU216HW,2013-02-24 01:00:00,
2013-02-23 18:05:00,54.7,21.1,29.84,SE,135,2.5,3.8,27,0.00,,,0.00,WUHU216HW,2013-02-24 01:05:00,
2013-02-23 18:10:00,54.4,20.8,29.84,SSE,158,1.8,3.4,27,0.00,,,0.00,WUHU216HW,2013-02-24 01:10:00,
2013-02-23 18:15:00,54.0,20.5,29.83,SSE,158,1.8,3.4,27,0.00,,,0.00,WUHU216HW,2013-02-24 01:15:00,
2013-02-23 18:20:00,53.8,21.2,29.83,SE,135,1.1,3.4,28,0.00,,,0.00,WUHU216HW,2013-02-24 01:20:00,
2013-02-23 18:25:00,53.6,21.2,29.83,SE,135,1.8,2.7,28,0.00,,,0.00,WUHU216HW,2013-02-24 01:25:00,
2013-02-23 18:30:00,53.3,20.8,29.83,SE,135,2.2,2.7,28,0.00,,,0.00,WUHU216HW,2013-02-24 01:30:00,
2013-02-23 18:35:00,52.9,20.5,29.83,SE,135,0.7,2.5,28,0.00,,,0.00,WUHU216HW,2013-02-24 01:35:00,
2013-02-23 18:40:00,52.4,21.0,29.83,ESE,113,1.6,2.5,29,0.00,,,0.00,WUHU216HW,2013-02-24 01:40:00,
2013-02-23 18:45:00,52.2,20.8,29.83,SE,135,2.7,2.7,29,0.00,,,0.00,WUHU216HW,2013-02-24 01:45:00,
2013-02-23 18:50:00,51.8,20.5,29.83,SE,135,1.3,2.7,29,0.00,,,0.00,WUHU216HW,2013-02-24 01:50:00,
2013-02-23 18:55:00,51.7,21.2,29.83,SE,135,0.9,2.7,30,0.00,,,0.00,WUHU216HW,2013-02-24 01:55:00,
2013-02-23 19:00:00,51.3,21.0,29.83,SE,135,2.2,2.5,30,0.00,,,0.00,WUHU216HW,2013-02-24 02:00:00,
2013-02-23 19:05:00,50.9,20.6,29.83,SE,135,1.3,2.2,30,0.00,,,0.00,WUHU216HW,2013-02-24 02:05:00,
2013-02-23 19:10:00,50.8,21.2,29.83,SSE,158,4.0,4.0,31,0.00,,,0.00,WUHU216HW,2013-02-24 02:10:00,
2013-02-23 19:15:00,50.8,21.2,29.83,SE,135,2.5,4.0,31,0.00,,,0.00,WUHU216HW,2013-02-24 02:15:00,
2013-02-23 19:20:00,50.4,20.8,29.83,SE,135,0.7,4.0,31,0.00,,,0.00,WUHU216HW,2013-02-24 02:20:00,
2013-02-23 19:25:00,50.2,21.3,29.84,SSE,158,0.9,2.5,32,0.00,,,0.00,WUHU216HW,2013-02-24 02:25:00,
2013-02-23 19:30:00,49.9,21.1,29.84,SE,135,0.0,1.8,32,0.00,,,0.00,WUHU216HW,2013-02-24 02:30:00,
2013-02-23 19:35:00,49.5,20.7,29.84,SW,225,0.0,1.1,32,0.00,,,0.00,WUHU216HW,2013-02-24 02:35:00,
2013-02-23 19:40:00,49.1,21.1,29.84,South,180,1.1,1.6,33,0.00,,,0.00,WUHU216HW,2013-02-24 02:40:00,
2013-02-23 19:45:00,49.0,21.0,29.84,SSW,203,2.5,2.7,33,0.00,,,0.00,WUHU216HW,2013-02-24 02:45:00,
2013-02-23 19:50:00,48.8,21.5,29.84,SE,135,3.1,3.6,34,0.00,,,0.00,WUHU216HW,2013-02-24 02:50:00,
2013-02-23 19:55:00,48.6,21.3,29.84,SSW,203,2.9,4.9,34,0.00,,,0.00,WUHU216HW,2013-02-24 02:55:00,
2013-02-23 20:00:00,48.6,21.3,29.84,SSE,158,2.9,4.9,34,0.00,,,0.00,WUHU216HW,2013-02-24 03:00:00,
2013-02-23 20:05:00,48.6,21.3,29.84,SE,135,1.8,4.9,34,0.00,,,0.00,WUHU216HW,2013-02-24 03:05:00,
2013-02-23 20:10:00,48.6,21.3,29.84,South,180,3.8,4.9,34,0.00,,,0.00,WUHU216HW,2013-02-24 03:10:00,
2013-02-23 20:15:00,48.4,21.9,29.84,SSE,158,3.1,4.9,35,0.00,,,0.00,WUHU216HW,2013-02-24 03:15:00,
2013-02-23 20:20:00,48.2,21.7,29.84,SSE,158,3.8,4.9,35,0.00,,,0.00,WUHU216HW,2013-02-24 03:20:00,
2013-02-23 20:25:00,48.2,22.3,29.84,South,180,5.6,6.3,36,0.00,,,0.00,WUHU216HW,2013-02-24 03:25:00,
2013-02-23 20:30:00,48.4,21.9,29.85,SE,135,3.4,6.3,35,0.00,,,0.00,WUHU216HW,2013-02-24 03:30:00,
2013-02-23 20:35:00,48.6,22.7,29.85,SSE,158,2.2,6.0,36,0.00,,,0.00,WUHU216HW,2013-02-24 03:35:00,
2013-02-23 20:40:00,48.6,22.0,29.85,SSW,203,3.1,4.3,35,0.00,,,0.00,WUHU216HW,2013-02-24 03:40:00,
2013-02-23 20:45:00,48.4,21.9,29.85,SE,135,0.9,3.6,35,0.00,,,0.00,WUHU216HW,2013-02-24 03:45:00,
2013-02-23 20:50:00,48.2,21.7,29.85,SE,135,0.2,3.1,35,0.00,,,0.00,WUHU216HW,2013-02-24 03:50:00,
2013-02-23 20:55:00,47.9,21.3,29.85,SE,135,0.9,2.2,35,0.00,,,0.00,WUHU216HW,2013-02-24 03:55:00,
2013-02-23 21:00:00,47.7,21.9,29.85,SE,135,0.9,1.8,36,0.00,,,0.00,WUHU216HW,2013-02-24 04:00:00,
2013-02-23 21:05:00,47.5,21.7,29.85,ESE,113,0.9,2.0,36,0.00,,,0.00,WUHU216HW,2013-02-24 04:05:00,
2013-02-23 21:10:00,47.3,22.2,29.85,SE,135,1.1,2.5,37,0.00,,,0.00,WUHU216HW,2013-02-24 04:10:00,
2013-02-23 21:15:00,47.3,22.2,29.84,SSE,158,1.8,2.5,37,0.00,,,0.00,WUHU216HW,2013-02-24 04:15:00,
2013-02-23 21:20:00,47.5,22.4,29.84,SE,135,1.3,2.5,37,0.00,,,0.00,WUHU216HW,2013-02-24 04:20:00,
2013-02-23 21:25:00,47.5,22.4,29.84,ESE,113,2.7,2.7,37,0.00,,,0.00,WUHU216HW,2013-02-24 04:25:00,
2013-02-23 21:30:00,47.7,22.5,29.84,SE,135,2.7,2.7,37,0.00,,,0.00,WUHU216HW,2013-02-24 04:30:00,
2013-02-23 21:35:00,47.7,22.5,29.84,ESE,113,1.8,3.1,37,0.00,,,0.00,WUHU216HW,2013-02-24 04:35:00,
2013-02-23 21:40:00,47.7,22.5,29.83,SSE,158,1.8,3.1,37,0.00,,,0.00,WUHU216HW,2013-02-24 04:40:00,
2013-02-23 21:45:00,47.7,22.5,29.83,SE,135,2.5,2.7,37,0.00,,,0.00,WUHU216HW,2013-02-24 04:45:00,
2013-02-23 21:50:00,47.7,22.5,29.83,East,90,2.0,3.6,37,0.00,,,0.00,WUHU216HW,2013-02-24 04:50:00,
2013-02-23 21:55:00,47.9,22.1,29.83,SE,135,1.3,3.8,36,0.00,,,0.00,WUHU216HW,2013-02-24 04:55:00,
2013-02-23 22:00:00,47.9,22.1,29.83,SSE,158,2.2,3.8,36,0.00,,,0.00,WUHU216HW,2013-02-24 05:00:00,
2013-02-23 22:05:00,47.5,22.4,29.83,ESE,113,1.1,3.8,37,0.00,,,0.00,WUHU216HW,2013-02-24 05:05:00,
2013-02-23 22:10:00,47.2,22.1,29.83,ESE,113,2.0,3.4,37,0.00,,,0.00,WUHU216HW,2013-02-24 05:10:00,
2013-02-23 22:15:00,47.0,21.3,29.83,ESE,113,1.8,3.4,36,0.00,,,0.00,WUHU216HW,2013-02-24 05:15:00,
2013-02-23 22:20:00,46.8,21.7,29.82,East,90,2.5,3.4,37,0.00,,,0.00,WUHU216HW,2013-02-24 05:20:00,
2013-02-23 22:25:00,46.6,21.6,29.82,ESE,113,2.5,4.9,37,0.00,,,0.00,WUHU216HW,2013-02-24 05:25:00,
2013-02-23 22:30:00,47.0,21.3,29.82,SE,135,3.6,4.9,36,0.00,,,0.00,WUHU216HW,2013-02-24 05:30:00,
2013-02-23 22:35:00,47.2,22.1,29.81,SE,135,4.0,4.9,37,0.00,,,0.00,WUHU216HW,2013-02-24 05:35:00,
2013-02-23 22:40:00,47.2,22.1,29.81,ESE,113,1.8,4.9,37,0.00,,,0.00,WUHU216HW,2013-02-24 05:40:00,
2013-02-23 22:45:00,47.3,22.2,29.81,ESE,113,3.6,4.9,37,0.00,,,0.00,WUHU216HW,2013-02-24 05:45:00,
2013-02-23 22:50:00,47.3,22.2,29.81,SSE,158,6.3,6.3,37,0.00,,,0.00,WUHU216HW,2013-02-24 05:50:00,
2013-02-23 22:55:00,47.2,22.1,29.81,South,180,4.0,6.3,37,0.00,,,0.00,WUHU216HW,2013-02-24 05:55:00,
2013-02-23 23:00:00,47.0,21.9,29.81,SE,135,4.5,6.3,37,0.00,,,0.00,WUHU216HW,2013-02-24 06:00:00,
2013-02-23 23:05:00,47.2,22.1,29.80,ESE,113,3.1,6.9,37,0.00,,,0.00,WUHU216HW,2013-02-24 06:05:00,
2013-02-23 23:10:00,47.2,22.1,29.80,ESE,113,3.6,6.9,37,0.00,,,0.00,WUHU216HW,2013-02-24 06:10:00,
2013-02-23 23:15:00,47.2,22.1,29.80,SE,135,4.5,7.8,37,0.00,,,0.00,WUHU216HW,2013-02-24 06:15:00,
2013-02-23 23:20:00,47.3,22.2,29.80,SE,135,4.7,7.8,37,0.00,,,0.00,WUHU216HW,2013-02-24 06:20:00,
2013-02-23 23:25:00,47.2,22.1,29.80,SE,135,5.1,6.5,37,0.00,,,0.00,WUHU216HW,2013-02-24 06:25:00,
2013-02-23 23:30:00,47.2,22.1,29.79,SE,135,3.1,5.8,37,0.00,,,0.00,WUHU216HW,2013-02-24 06:30:00,
2013-02-23 23:35:00,47.0,21.3,29.79,SE,135,2.5,5.1,36,0.00,,,0.00,WUHU216HW,2013-02-24 06:35:00,
2013-02-23 23:40:00,46.8,21.1,29.79,ESE,113,6.0,6.9,36,0.00,,,0.00,WUHU216HW,2013-02-24 06:40:00,
2013-02-23 23:45:00,46.8,21.1,29.79,ESE,113,2.0,6.9,36,0.00,,,0.00,WUHU216HW,2013-02-24 06:45:00,
2013-02-23 23:50:00,46.4,20.7,29.79,SE,135,1.3,6.0,36,0.00,,,0.00,WUHU216HW,2013-02-24 06:50:00,
2013-02-23 23:55:00,46.6,18.9,29.78,WSW,248,6.7,9.2,33,0.00,,,0.00,WUHU216HW,2013-02-24 06:55:00,